359  
ASGM40 PGUM 261412  
RWRGUM  
WEATHER ROUNDUP FOR THE MARIANAS  
NATIONAL WEATHER SERVICE TIYAN GU  
1200 AM CHST THU JUL 27 2017  
 
GUZ001>004-261500-  
MARIANA ISLANDS-  
 
CITY SKY/WX TMP DP RH WIND PRES REMARKS
 
GUAM AIRPORT CLEAR 77 75 94 CALM 29.85S  
ANDERSEN AFB CLEAR 79 73 83 SW3 29.86S  
ROTA AIRPORT NOT AVBL  
TINIAN AP NOT AVBL  
SAIPAN AP PTCLDY 84 79 84 SW5 29.82S HX 96  
 

 
 
 
 
CLICK HERE TO GO TO PREVIOUS BULLETINS.

The Nexlab GU Page Main Text Page